Regional Weather Roundup
Issued by NWS

Home | Current Version | Previous Version | Text Only | Print | Product List | Glossary On
Versions: 1 2 3 4 5 6 7 8 9 10 11 12 13 14 15 16 17 18 19 20 21 22 23 24 25 26 27 28 29 30 31 32 33 34 35 36 37 38 39 40 41 42 43 44 45 46 47 48 49 50
000
ASCA42 TJSJ 271310
RWRPR
PUERTO RICO/U.S. VIRGIN ISLANDS HOURLY WEATHER ROUNDUP
NATIONAL WEATHER SERVICE SAN JUAN PR
900 AM AST MON FEB 27 2017

PRZ001>002-007>008-010-271400-
PUERTO RICO

CITY           SKY/WX    TMP DP  RH WIND       PRES   REMARKS
SAN JUAN LMM   MOSUNNY   79  73  83 SE8       30.11R
AGUADILLA      PTSUNNY   73  72  94 E9        30.13R
CEIBA          PTSUNNY   82  72  69 E8        30.13R
$$

VIZ001>002-271400-
U.S. VIRGIN ISLANDS

CITY           SKY/WX    TMP DP  RH WIND       PRES   REMARKS
CHARLOTTE AMA  MOSUNNY   81  72  74 E15       30.10R
CHRISTIANSTED  MOSUNNY   81  70  69 E16       30.09R
$$

HOURLY WEATHER ROUNDUP FOR THE NEWS MEDIA

CITY           SKY/WX    TMP DP  RH WIND       PRES   REMARKS
ORLANDO        SUNNY     62  58  86 E5        30.24R
NEW YORK       MOSUNNY   38  27  64 SW12      30.42R WCI  30
NEWARK         PTSUNNY   35  21  56 SW8       30.41R WCI  29
CHICAGO        PTCLDY    29  23  78 S3        30.13R
HARTFORD       SUNNY     37  24  59 SW9       30.35S WCI  30
BOSTON         SUNNY     34  19  54 SW21      30.32S WCI  22
DALLAS         CLOUDY    63  59  87 SE6       29.94R
PHILADELPHIA   PTSUNNY   37  26  64 SW7       30.43R WCI  32
LOS ANGELES    CLOUDY    51  44  77 E5        29.89F
WASHINGTON DC  CLOUDY    33  26  75 CALM      30.41R


USA.gov is the U.S. government's official web portal to all federal, state and local government web resources and services.